This is the latest recevied weather packets stored in our database for station/object DG1ROH. If no packets are shown the sender has not sent any weather packets the latest 10 day(s).
| Time | Temp. | Humidity | Pressure | Rain* | Wind** | Luminosity | Snow |
|---|---|---|---|---|---|---|---|
| 1777113055 | 13.89° C | 61% | 1012.9 hPa | 0 mm | - | 698 W/m² | - |
| 1777112936 | 13.89° C | 63% | 1012.9 hPa | 0 mm | - | 693 W/m² | - |
| 1777112815 | 13.89° C | 63% | 1012.9 hPa | 0 mm | - | 698 W/m² | - |
| 1777112695 | 13.89° C | 61% | 1012.9 hPa | 0 mm | - | 418 W/m² | - |
| 1777112575 | 14.44° C | 60% | 1013 hPa | 0 mm | - | 650 W/m² | - |
| 1777112455 | 14.44° C | 64% | 1013 hPa | 0 mm | - | 650 W/m² | - |
| 1777112335 | 13.89° C | 64% | 1013 hPa | 0 mm | - | 696 W/m² | - |
| 1777112215 | 13.89° C | 61% | 1013 hPa | 0 mm | - | 694 W/m² | - |
| 1777112088 | 13.89° C | 62% | 1012.9 hPa | 0 mm | - | 693 W/m² | - |
| 1777111969 | 13.89° C | 66% | 1012.8 hPa | 0 mm | - | 682 W/m² | - |
| 1777111849 | 13.33° C | 64% | 1012.9 hPa | 0 mm | - | 686 W/m² | - |
| 1777111729 | 13.33° C | 62% | 1012.9 hPa | 0 mm | - | 686 W/m² | - |
| 1777111609 | 13.33° C | 63% | 1012.9 hPa | 0 mm | - | 682 W/m² | - |
| 1777111489 | 13.33° C | 63% | 1013 hPa | 0 mm | - | 670 W/m² | - |
| 1777111369 | 13.33° C | 62% | 1013 hPa | 0 mm | - | 670 W/m² | - |
| 1777111249 | 13.33° C | 64% | 1012.9 hPa | 0 mm | - | 675 W/m² | - |
| 1777111129 | 13.33° C | 64% | 1013 hPa | 0 mm | - | 675 W/m² | - |
| 1777111009 | 13.33° C | 64% | 1013 hPa | 0 mm | - | 670 W/m² | - |
| 1777110889 | 13.33° C | 65% | 1013 hPa | 0 mm | - | 668 W/m² | - |
| 1777110763 | 12.78° C | 65% | 1013.1 hPa | 0 mm | - | 666 W/m² | - |
| 1777110644 | 12.78° C | 64% | 1013 hPa | 0 mm | - | 664 W/m² | - |
| 1777110523 | 12.78° C | 65% | 1012.9 hPa | 0 mm | - | 664 W/m² | - |
| 1777110402 | 12.78° C | 65% | 1013 hPa | 0 mm | - | 668 W/m² | - |
| 1777110283 | 12.22° C | 65% | 1013.1 hPa | 0 mm | - | 663 W/m² | - |
| 1777110163 | 12.78° C | 65% | 1013 hPa | 0 mm | - | 652 W/m² | - |
* Rain latest hour (hover to see other rain measurements)
** Current wind speed in m/s (hover to see current wind gust speed)